Find Starlink 33673

NORAD ID: 63284 Int'l Des: 2025-053 Owner: SPXS Country: US Constellation: starlink operational
LEOCIRCULAR

当前视图

正在加载3D地球...

About Starlink 33673

Starlink 33673 (NORAD 63284) is a starlink constellation satellite (v2 mini) launched Mar 15, 2025 by SPXS of US. It operates in LEO, CIRCULAR orbit with a mass of 575.00 kg.

即将过境

Passes for default location (London). Set your location on the main map for personalized predictions.

高度历史

Loading altitude history...

两行轨道根数

1 63284U 25053V 26235.81960045 .00013303 00000-0 49189-3 0 9993
2 63284 43.0035 10.1266 0001501 276.1238 83.9443 15.27593212 81953
Epoch: Aug 23, 2026 • Age: 13 hours

当前状态

高度 484.3 km
远地点 / 近地点 N/A
速度 7.63 km/s
星下点 29.69°N, 44.84°E
发射日期 Mar 15, 2025
运行时间 1.4 years
类型 internet

技术详情

分类 Payload
质量 575.00 kg
干质量 530.00 kg
总质量 575.00 kg
长度 0.30 m
直径 4.10 m
跨度 29.00 m
形状 Box + pan
制造商 SPXS
平台类型 Starlink V2MO
阶段状态 In Orbit
所有者/国家 SPXS/US

Most Searched